Regional Weather Roundup
Issued by NWS

Home | Current Version | Previous Version | Graphics & Text | Print | Product List | Glossary On
Versions: 1 2 3 4 5 6 7 8 9 10 11 12 13 14 15 16 17 18 19 20 21 22 23 24 25 26 27 28
000
ASUS45 KBOU 261507
RWRCO

WEATHER ROUNDUP FOR COLORADO
NATIONAL WEATHER SERVICE DENVER/BOULDER CO
900 AM MDT TUE JUL 26 2016

NOTE: "FAIR" INDICATES FEW OR NO CLOUDS BELOW 12000 FEET WITH NO
SIGNIFICANT WEATHER AND/OR OBSTRUCTIONS TO VISIBILITY.

COZ001>005-013-030-031-261600-
...NORTHWEST COLORADO...

CITY           SKY/WX    TMP DP  RH WIND       PRES   REMARKS
CRAIG          FAIR      68  42  38 CALM      30.30R
HAYDEN         FAIR      68  37  32 E12       30.32S
MEEKER         FAIR      68  44  42 VRB3      30.31S
MOUNT WERNER   NOT AVBL
STEAMBOAT SPGS FAIR      58  42  54 CALM      30.35R
WALDEN         FAIR      61  37  41 SE5       30.44S
$$

COZ006>008-011-261600-
...WEST CENTRAL VALLEYS...

CITY           SKY/WX    TMP DP  RH WIND       PRES   REMARKS
GRAND JUNCTION FAIR      79  44  28 SE8       30.18R
MONTROSE       FAIR      74  46  36 CALM      30.28R
EAGLE          SUNNY     64  39  39 CALM      30.37S
RIFLE          FAIR      73  44  35 N5        30.26R
DELTA          FAIR      77  45  32 CALM      30.25R
NUCLA          FAIR     N/A N/A N/A N3        30.33R
$$

COZ017>023-064>068-261600-
...SOUTHWEST COLORADO...

CITY           SKY/WX    TMP DP  RH WIND       PRES   REMARKS
DURANGO        FAIR      72  51  47 E8        30.35S
CORTEZ         FAIR      72  55  55 SE6       30.28R
PAGOSA SPRINGS FAIR      67  46  46 CALM      30.43F
TELLURIDE      FAIR      64  45  49 CALM      30.54R
WOLF CREEK PAS PTSUNNY   50  43  76 CALM      30.75S
$$

COZ009-010-012-014-032>034-037-058>063-261600-
...CENTRAL COLORADO...

CITY           SKY/WX    TMP DP  RH WIND       PRES   REMARKS
ASPEN          FAIR      65  44  46 CALM      30.40S
BUENA VISTA    FAIR      67  40  37 NW13      30.43F
COPPER MTN     FAIR      59  30  33 CALM      30.75R
BERTHOUD PASS  FAIR      50  34  53 N13G22    30.77S
COTTONWOOD PAS FAIR      64  37  36 SE3       30.57R
GUNNISON       FAIR      63  43  48 NE3       30.47S
KREMMLING      FAIR      59  37  44 CALM      30.43S
LEADVILLE      FAIR      59  39  47 S3        30.56F
MONARCH PASS   FAIR      55  36  47 SW8       30.83S
SALIDA         FAIR      67  43  41 NW6       30.47F
SUNLIGHT       FAIR      63  37  39 CALM      30.67S
WILKERSON PASS FAIR      61  32  33 N6        30.70R
$$

COZ069>075-261600-
...SAN LUIS VALLEY/SANGRE DE CRISTO MOUNTAINS...

CITY           SKY/WX    TMP DP  RH WIND       PRES   REMARKS
ALAMOSA        FAIR      66  49  54 VRB5      30.41S
LA VETA PASS   FAIR      59  45  58 SW5       30.58S
SAGUACHE       FAIR      68  45  42 W3        30.44S
$$

COZ035-036-038>040-261600-
...NORTHERN COLORADO FRONT RANGE...

CITY           SKY/WX    TMP DP  RH WIND       PRES   REMARKS
DENVER INTL AP PTSUNNY   77  52  41 SW7       30.17R
DMNS CITY PARK   N/A     78  53  40 W1        30.17S
AURORA         MOSUNNY   79  48  34 SW7       30.19S
FRONT RANGE AP PTSUNNY   82  48  30 W8        30.18S
ERIE MUNI ARPT FAIR      75  50  42 CALM      30.15S
BOULDER MUN AP FAIR      72  52  49 CALM      30.16S
CENTENNIAL     FAIR      80  42  25 SW8       30.20S
BROOMFIELD     PTSUNNY   75  54  46 SE5       30.20R
LONGMONT       FAIR      73  53  50 CALM      30.17R
$$

COZ041-046-047-076>085-087-088-261600-
...PIKES PEAK/PALMER DIVIDE AND SOUTHERN FOOTHILLS...

CITY           SKY/WX    TMP DP  RH WIND       PRES   REMARKS
COLO. SPRINGS  FAIR      67  53  61 CALM      30.28S
A. F. ACADEMY  FAIR      67  51  54 S5        30.29S
SCHRIEVER AFB  NOT AVBL
ELLICOTT       FAIR     N/A N/A N/A SE6       30.26R
FALCON         FAIR      67  52  57 CALM      30.33R
FORT CARSON    FAIR      68  55  63 VRB3      30.25S
LIMON          NOT AVBL
MONUMENT HILL  FAIR      75  46  35 W9        30.32S
TRINIDAD       NOT AVBL
$$

COZ042>045-048>051-090-091-261600-
...NORTHEAST COLORADO...

CITY           SKY/WX    TMP DP  RH WIND       PRES   REMARKS
GREELEY ARPT   FAIR      70  55  60 SE3       30.14S
AKRON          FAIR      73  61  65 S14       30.14S
BURLINGTON     FAIR      75  65  70 S18       30.16S
WRAY           FAIR      77  64  65 S14G21    30.12S
STERLING       FAIR      73  63  68 SW14      30.09R
HOLYOKE        FAIR      73  64  73 W14       30.10F
FORT MORGAN    FAIR      73  55  52 S10       30.13S
$$

COZ086-089-092>099-261600-
...SOUTHEAST COLORADO...

CITY           SKY/WX    TMP DP  RH WIND       PRES   REMARKS
PUEBLO         FAIR      71  58  63 CALM      30.17S
LA JUNTA       FAIR      76  58  53 E5        30.15R
LAMAR          FAIR      79  66  64 S10       30.12R
SPRINGFIELD      N/A     75  65  70 CALM      30.17S
$$




USA.gov is the U.S. government's official web portal to all federal, state and local government web resources and services.